Location: Chmeln�
(49.6483°N, 14.9871°E)
Time: 08:12:09
(UTC+00:00)

COSMO-SKYMED 1 - Pass Details

Date: 18 September 2020
Orbit: 621 x 623 km, 97.9° (Epoch: 24 October)

Event Time Altitude Azimuth Distance (km) Brightness Sun altitude
Rises 17:30:14 0° 11° (N) 2,918 6.0 -4.7°
Reaches altitude 10° 17:32:26 10° 9° (N) 2,006 5.2 -5.1°
Maximum altitude 17:36:46 67° 288° (WNW) 678 3.1 -5.8°
Drops below altitude 10° 17:41:04 10° 205° (SSW) 1,989 5.4 -6.5°
Sets 17:43:15 0° 203° (SSW) 2,890 6.2 -6.8°
